Wind_Speed
22 22 22 20 20 21 22 23 23 23 22 22 23 23 23 23 23 23 24 26 27 28 28 29 31 32 33 34 35 35 35 36 37 37 37 37 37 38 38 37 37 38 38 38
22 22 22 21 21 22 23 23 23 23 23 23 23 24 24 24 24 24 23 24 26 28 28 28 28 30 31 31 33 34 34 35 35 35 35 36 35 35 36 36 36 36 36 36
24 23 24 22 22 24 24 24 25 24 24 24 23 24 24 24 24 24 23 23 24 25 27 28 28 29 30 30 31 33 34 34 34 35 35 35 34 35 37 37 36 36 36 36
25 25 25 23 23 23 24 24 25 25 24 25 25 24 24 24 24 24 23 24 24 24 25 26 27 28 28 28 29 30 31 33 34 35 35 34 34 35 35 36 36 36 36 36
26 26 25 24 23 24 24 24 26 26 26 27 26 25 24 24 24 25 24 24 24 24 25 24 25 25 27 27 27 28 29 30 32 33 34 34 34 34 34 34 35 36 36 37
26 26 25 23 23 24 25 24 25 26 27 27 26 26 24 25 25 26 26 25 25 25 25 25 25 24 25 26 26 27 28 29 30 31 32 32 33 33 33 34 35 36 36 36
27 27 26 25 24 25 26 26 25 26 26 26 26 25 25 25 24 25 26 26 26 26 25 25 25 25 25 27 27 26 27 28 29 30 30 31 31 31 32 32 33 33 33 33
27 27 26 25 25 25 26 26 25 25 25 25 24 24 24 24 23 23 24 24 25 25 25 25 26 26 26 27 27 27 28 28 29 29 29 30 30 30 30 30 31 31 32 32
26 26 26 25 25 26 26 26 25 25 24 24 24 24 24 24 23 22 23 23 24 25 25 26 26 27 27 27 27 27 27 27 27 27 28 29 29 29 29 29 30 30 31 31
27 26 26 25 26 26 26 26 25 25 24 25 24 24 24 24 24 23 23 24 25 25 25 25 26 26 27 27 28 27 27 27 28 28 28 28 28 28 28 28 29 29 29 30
26 25 25 25 25 24 24 24 25 25 24 24 23 23 23 23 23 22 22 22 23 24 24 25 25 26 26 26 27 27 27 26 27 28 28 28 28 28 29 29 29 29 28 28
26 25 26 25 24 24 23 24 24 23 23 23 23 22 22 22 23 22 21 21 21 22 23 24 25 26 27 27 27 26 26 26 26 27 27 28 29 29 29 29 29 29 27 26
26 26 26 25 24 23 23 23 23 22 22 22 22 22 22 22 22 22 22 22 22 22 22 22 23 24 25 26 27 26 26 26 26 27 27 28 29 29 29 28 28 28 27 26
26 26 26 25 24 23 23 22 22 21 21 21 21 21 21 21 22 22 22 22 22 22 22 22 23 23 24 25 26 26 26 25 25 25 26 27 27 27 27 26 27 27 26 26
26 26 26 25 24 23 22 22 21 21 21 20 20 20 20 20 20 21 21 22 22 22 22 22 23 23 24 24 25 25 25 25 24 24 24 24 24 24 24 24 24 24 24 24
25 25 25 25 24 23 22 21 21 21 21 21 21 20 20 20 20 20 20 21 21 22 22 22 23 23 23 24 24 24 24 24 24 23 23 23 23 22 22 22 22 22 23 23
25 25 25 24 23 23 22 22 21 21 21 21 21 21 21 20 20 20 20 20 21 21 21 21 22 22 22 23 23 23 22 23 23 23 22 22 22 22 22 22 22 22 22 22
25 25 25 24 23 23 23 23 22 22 22 22 22 21 21 20 21 21 21 21 21 21 20 20 21 20 20 21 21 21 21 21 22 22 23 23 23 22 21 21 21 21 21 21
25 24 24 24 23 23 23 23 23 23 23 23 22 22 21 21 21 21 21 21 21 20 20 20 19 19 19 20 20 19 19 20 20 21 22 22 22 21 20 20 20 20 20 20
25 24 23 23 23 23 23 23 23 23 23 23 23 22 22 21 21 21 21 20 20 19 19 19 18 18 18 18 18 18 19 19 20 21 21 21 20 19 19 19 19 19 19 18
25 24 23 23 23 23 23 23 23 23 24 24 24 24 23 22 21 21 20 20 19 18 18 17 17 17 17 17 18 18 18 19 19 19 19 19 19 18 18 18 18 17 17 17
24 24 24 24 24 23 23 23 23 24 24 24 24 23 23 22 22 21 20 19 18 17 17 17 17 17 17 17 17 17 17 18 17 17 17 17 17 17 16 16 16 16 15 15
24 24 24 24 24 24 23 23 23 23 23 23 22 22 22 21 21 20 19 18 17 16 17 16 16 16 16 16 16 17 17 17 16 17 17 16 16 15 15 14 14 14 14 14
24 24 24 24 23 22 22 21 21 21 20 20 20 20 20 20 19 18 17 17 16 16 16 16 16 16 16 16 16 16 16 16 16 16 16 16 15 15 14 14 13 13 13 13
23 23 22 22 22 21 20 19 18 18 18 18 19 18 18 18 17 17 16 16 16 15 15 15 15 15 15 15 15 16 15 15 15 15 15 14 13 13 13 12 12 12 12 12
21 21 21 20 20 19 18 18 18 18 18 18 17 17 16 16 16 16 15 15 15 15 14 15 14 14 14 14 14 15 14 14 13 13 13 12 12 12 12 12 11 11 11 11
20 19 19 18 18 17 17 17 17 18 17 17 16 15 15 15 15 14 14 15 15 14 14 14 13 13 13 13 13 12 12 12 11 11 11 11 11 11 11 11 11 10 10 9
Wind_Direction
308 306 297 287 280 278 279 281 280 279 280 281 277 276 275 274 273 271 267 266 262 259 258 257 257 256 255 253 252 254 253 252 253 254 256 259 260 261 261 262 264 264 263 263
306 303 297 289 281 278 279 279 279 278 279 280 277 275 274 274 274 274 270 266 263 260 257 256 255 255 254 252 254 255 255 253 254 255 257 259 259 259 260 261 262 263 264 265
304 302 298 293 289 284 281 279 279 279 279 280 278 274 273 272 273 274 272 268 263 260 257 255 254 255 255 254 255 256 255 253 254 255 256 258 258 259 260 260 261 264 265 265
304 302 299 298 294 289 285 282 279 277 277 278 278 276 274 272 271 271 268 266 265 263 260 256 254 254 254 254 255 256 256 255 254 255 256 258 259 260 261 260 262 265 265 265
306 303 301 299 297 294 290 284 280 277 276 277 276 275 274 273 271 268 266 265 264 263 261 259 256 255 255 254 254 255 256 256 256 255 258 260 261 263 263 262 263 265 266 265
305 303 303 303 298 294 291 288 283 280 279 277 275 275 274 273 272 268 266 265 263 262 261 258 255 255 254 254 255 256 257 259 259 259 260 260 261 262 263 264 264 266 266 267
304 303 305 305 300 296 292 290 286 283 282 279 276 276 276 275 273 270 267 264 263 261 259 258 257 258 258 258 257 258 260 261 261 260 260 261 262 263 264 265 266 268 268 268
306 306 308 305 299 295 293 290 286 283 281 279 277 276 276 276 275 272 269 266 263 262 261 261 258 259 260 259 259 260 261 262 262 261 261 261 262 264 266 267 268 269 270 270
307 307 307 303 298 296 294 290 285 282 279 278 278 276 276 276 275 272 271 269 267 264 262 262 260 258 259 258 260 262 263 264 264 264 263 264 265 266 267 268 269 270 271 270
306 306 304 302 299 296 293 290 286 283 281 280 279 278 278 276 275 275 273 272 270 267 264 262 262 261 260 259 262 263 263 264 264 263 265 265 266 266 267 269 270 271 271 271
305 305 302 301 298 296 293 289 287 285 283 283 281 281 281 279 276 276 276 274 271 268 267 266 263 261 262 262 263 265 265 264 264 264 266 266 267 268 269 270 272 273 273 273
303 302 300 301 299 297 293 291 289 286 284 283 284 284 283 281 277 276 275 274 274 271 269 267 265 262 262 264 265 267 267 267 266 266 266 267 268 268 270 271 271 271 271 270
299 298 298 300 299 296 293 291 289 287 285 285 285 285 284 282 280 276 275 275 274 274 271 268 266 264 264 266 266 266 267 266 266 266 266 267 268 270 271 270 270 270 270 269
297 296 297 299 297 295 293 291 287 286 285 285 286 286 286 285 282 278 275 274 274 272 271 269 268 267 266 266 266 265 266 266 266 267 268 269 270 271 272 272 270 269 268 268
297 297 298 298 297 295 292 289 288 287 287 287 288 287 286 285 284 281 277 274 272 271 270 270 270 269 269 267 266 265 264 265 266 268 269 270 271 271 272 272 270 268 267 267
298 298 298 296 296 293 291 289 288 288 286 287 289 289 287 285 283 283 280 276 272 271 270 270 270 270 269 266 266 266 265 264 265 267 269 269 269 270 271 271 270 268 266 268
298 298 297 296 294 292 291 291 289 288 288 288 288 289 288 286 284 283 281 279 276 272 271 272 272 270 268 266 265 265 265 265 265 266 268 269 269 269 271 271 270 268 267 269
297 297 297 296 294 291 289 290 289 289 289 288 288 288 287 285 284 283 283 281 278 275 273 272 272 270 268 265 263 263 264 265 265 267 268 270 271 271 271 270 270 269 269 270
297 297 298 297 294 291 290 289 290 289 288 288 287 287 286 285 284 283 283 281 279 276 274 273 271 268 266 265 263 262 263 266 267 268 268 270 271 271 270 269 268 267 268 270
298 297 297 297 296 294 293 291 291 289 287 286 286 285 285 285 284 283 282 282 279 276 274 272 270 268 266 263 262 262 264 266 268 269 269 268 269 270 270 270 268 267 267 267
298 297 297 296 296 296 295 293 292 289 286 285 284 284 284 284 285 282 280 281 279 277 274 272 271 269 267 263 263 265 266 266 267 268 268 267 267 268 269 269 268 267 265 265
297 297 297 296 296 297 295 293 292 290 288 285 284 282 281 283 283 281 279 278 277 275 273 272 271 270 267 265 265 266 266 267 267 267 267 268 268 268 268 268 266 264 264 262
295 296 298 297 296 296 295 294 293 291 290 288 286 282 281 281 281 279 276 274 273 274 273 271 271 269 266 264 265 266 268 268 268 268 269 268 267 266 266 266 264 262 262 259
295 295 297 297 297 297 296 296 295 293 291 289 286 284 282 281 278 275 272 271 272 273 273 271 270 267 264 263 264 265 267 267 268 269 268 266 264 263 263 262 260 259 257 254
297 296 296 297 297 296 297 297 297 295 295 293 290 287 284 281 277 274 271 270 272 273 272 271 269 266 264 264 265 265 267 266 269 269 266 261 260 258 257 256 255 255 253 250
298 297 298 298 297 296 296 297 298 297 299 298 294 290 286 282 278 273 270 270 271 272 273 272 268 265 263 264 263 264 265 266 267 266 263 256 253 253 252 252 251 248 246 244
298 297 297 297 296 295 296 298 299 299 299 297 293 291 288 284 278 273 270 271 271 272 272 269 265 263 264 264 262 261 261 262 262 259 256 255 253 250 247 244 238 234 233 233
Height
5605 5603 5601 5600 5599 5598 5597 5597 5596 5595 5594 5594 5592 5592 5591 5591 5591 5591 5591 5591 5591 5592 5593 5594 5595 5596 5597 5599 5601 5603 5605 5608 5611 5613 5615 5617 5619 5620 5622 5624 5625 5627 5629 5630
5601 5599 5596 5595 5595 5593 5592 5591 5590 5589 5589 5588 5587 5586 5586 5585 5585 5584 5584 5584 5584 5585 5586 5587 5587 5588 5589 5591 5593 5594 5597 5599 5602 5605 5607 5609 5610 5612 5613 5615 5617 5618 5620 5621
5596 5594 5591 5591 5590 5588 5587 5586 5585 5584 5584 5582 5581 5580 5580 5579 5579 5578 5578 5578 5578 5578 5579 5579 5580 5581 5582 5583 5585 5586 5589 5592 5594 5596 5598 5600 5601 5603 5605 5606 5608 5609 5610 5612
5590 5589 5587 5589 5584 5582 5580 5580 5578 5577 5577 5576 5575 5574 5574 5573 5573 5572 5572 5572 5571 5572 5572 5572 5573 5574 5575 5576 5578 5579 5581 5584 5586 5588 5590 5591 5592 5594 5596 5597 5599 5600 5601 5602
5584 5582 5581 5582 5579 5576 5574 5574 5572 5571 5570 5569 5568 5568 5568 5567 5566 5566 5565 5565 5565 5565 5566 5566 5566 5567 5568 5569 5571 5573 5574 5576 5578 5580 5581 5583 5584 5586 5587 5588 5590 5591 5592 5593
5579 5576 5575 5576 5573 5569 5568 5568 5567 5565 5563 5562 5561 5561 5562 5560 5559 5559 5559 5559 5559 5559 5559 5560 5560 5561 5562 5564 5565 5566 5567 5569 5570 5572 5573 5575 5576 5577 5578 5579 5580 5581 5582 5583
5573 5570 5569 5569 5566 5563 5563 5562 5560 5558 5556 5555 5554 5555 5555 5553 5553 5552 5552 5552 5552 5552 5553 5554 5554 5555 5556 5557 5558 5559 5560 5562 5563 5564 5565 5566 5568 5569 5569 5570 5571 5572 5573 5574
5568 5565 5566 5562 5560 5558 5556 5553 5552 5551 5550 5549 5548 5547 5547 5546 5546 5545 5545 5545 5545 5545 5546 5547 5548 5549 5550 5551 5552 5552 5554 5555 5555 5556 5557 5558 5560 5560 5561 5562 5562 5563 5564 5565
5564 5563 5559 5556 5553 5551 5548 5547 5545 5544 5543 5542 5542 5541 5540 5540 5539 5539 5538 5538 5538 5539 5539 5540 5541 5542 5543 5544 5545 5545 5546 5547 5548 5548 5549 5550 5551 5552 5553 5553 5554 5554 5555 5555
5557 5556 5553 5549 5546 5544 5542 5540 5539 5537 5537 5536 5535 5534 5533 5533 5532 5532 5532 5532 5531 5532 5532 5533 5534 5534 5535 5536 5537 5538 5539 5540 5540 5541 5542 5543 5543 5544 5545 5545 5545 5546 5546 5546
5551 5549 5546 5544 5540 5538 5536 5534 5532 5531 5530 5529 5528 5528 5527 5526 5526 5525 5525 5525 5525 5525 5525 5526 5527 5527 5528 5529 5530 5531 5532 5532 5533 5533 5534 5535 5535 5536 5536 5536 5536 5537 5537 5537
5545 5542 5539 5537 5535 5532 5530 5528 5526 5525 5524 5523 5522 5521 5520 5520 5519 5519 5519 5518 5518 5518 5518 5519 5519 5520 5521 5522 5523 5524 5524 5525 5525 5525 5526 5527 5527 5527 5527 5528 5528 5528 5528 5529
5537 5535 5532 5530 5528 5526 5524 5523 5521 5520 5519 5517 5516 5515 5514 5513 5512 5512 5512 5512 5511 5511 5511 5512 5512 5513 5513 5514 5515 5516 5516 5517 5517 5518 5518 5518 5518 5519 5519 5519 5519 5519 5520 5520
5530 5528 5526 5524 5522 5520 5518 5517 5516 5514 5513 5512 5510 5509 5508 5507 5506 5505 5505 5505 5505 5504 5505 5505 5505 5505 5506 5506 5507 5508 5509 5509 5509 5510 5510 5510 5510 5510 5510 5511 5511 5511 5512 5512
5524 5521 5519 5518 5516 5514 5512 5511 5510 5509 5507 5506 5504 5503 5502 5501 5500 5499 5498 5498 5498 5498 5498 5498 5498 5498 5498 5499 5500 5500 5501 5501 5502 5502 5502 5502 5502 5503 5503 5503 5503 5504 5504 5504
5517 5515 5513 5511 5510 5508 5506 5505 5504 5503 5502 5500 5499 5497 5496 5495 5494 5493 5492 5491 5491 5491 5491 5490 5491 5491 5491 5492 5492 5493 5493 5494 5494 5495 5495 5495 5495 5496 5496 5496 5496 5496 5497 5497
5510 5509 5507 5505 5503 5502 5500 5499 5498 5497 5495 5494 5493 5491 5490 5489 5488 5487 5486 5485 5485 5484 5484 5484 5484 5484 5484 5484 5485 5486 5486 5487 5487 5488 5488 5488 5489 5489 5489 5489 5489 5489 5490 5490
5503 5502 5500 5498 5497 5495 5494 5493 5492 5490 5489 5488 5486 5485 5484 5483 5482 5481 5480 5479 5479 5478 5478 5477 5477 5477 5477 5477 5478 5479 5479 5480 5481 5481 5482 5482 5482 5482 5482 5482 5483 5483 5483 5484
5497 5495 5493 5492 5490 5489 5487 5486 5485 5484 5482 5481 5480 5479 5478 5477 5476 5475 5474 5473 5472 5472 5472 5471 5471 5471 5471 5471 5472 5472 5473 5474 5474 5474 5475 5475 5475 5475 5476 5476 5476 5476 5477 5478
5490 5488 5487 5485 5483 5482 5481 5479 5478 5477 5475 5474 5473 5472 5471 5470 5469 5468 5467 5467 5466 5466 5465 5465 5465 5465 5465 5465 5466 5466 5467 5467 5468 5468 5468 5469 5469 5469 5469 5470 5470 5470 5471 5471
5483 5482 5480 5479 5477 5476 5474 5472 5471 5470 5468 5467 5466 5465 5465 5464 5463 5462 5461 5461 5460 5460 5459 5459 5459 5459 5459 5460 5460 5461 5461 5462 5462 5462 5462 5463 5463 5463 5463 5463 5464 5464 5465 5465
5476 5475 5473 5472 5471 5469 5468 5466 5464 5463 5461 5460 5459 5458 5458 5457 5456 5455 5455 5454 5454 5454 5454 5454 5453 5454 5454 5454 5454 5455 5455 5455 5456 5456 5456 5457 5457 5458 5458 5458 5458 5459 5459 5460
5470 5468 5467 5465 5464 5463 5461 5459 5458 5456 5455 5453 5452 5452 5451 5450 5450 5449 5449 5448 5448 5448 5448 5448 5448 5448 5448 5448 5449 5449 5450 5450 5450 5451 5451 5451 5452 5452 5452 5453 5453 5454 5454 5455
5463 5462 5460 5459 5457 5456 5454 5453 5451 5449 5448 5447 5446 5445 5445 5444 5444 5443 5442 5442 5442 5442 5442 5442 5442 5442 5443 5443 5444 5444 5444 5445 5445 5445 5446 5446 5447 5447 5447 5448 5448 5449 5450 5451
5457 5455 5454 5453 5451 5450 5448 5447 5445 5444 5443 5441 5440 5439 5439 5438 5438 5437 5437 5437 5437 5437 5437 5437 5437 5437 5437 5438 5438 5439 5439 5439 5440 5440 5440 5441 5441 5442 5443 5443 5444 5445 5446 5447
5451 5450 5448 5447 5445 5444 5443 5442 5441 5439 5438 5436 5435 5434 5433 5433 5432 5432 5432 5432 5432 5432 5432 5432 5432 5432 5433 5433 5434 5434 5434 5435 5435 5435 5436 5436 5437 5438 5439 5439 5440 5442 5443 5444
5445 5444 5443 5442 5440 5439 5438 5437 5436 5435 5433 5432 5431 5430 5429 5428 5428 5428 5428 5428 5428 5427 5427 5427 5428 5428 5428 5429 5429 5430 5430 5431 5431 5432 5432 5433 5433 5434 5435 5436 5437 5439 5440 5442